Date String (YYYY-MM-DD hh:mm:ss) UTC,Instrument flags,Ambient pressure (hPa),Sample flow (lpm),Bypass flow (lpm),Sample temperature (°C),Ambient temperature (°C),ASC tube jacket temperature (°C),LED temperature (°C),Box temperature (°C),Sample RH (%),Span deviation,Mass concentration (μg/m³),Mass concentration (μg/m³),Mass concentration (μg/m³)
DateTimeUTC,F1_M11,P_M11,Q1_M11,Q2_M11,T1_M11,T2_M11,T3_M11,T4_M11,T5_M11,U1_M11,ZSPAN_M11,X0_M11,X2_M11,X1_M11
2022-05-28 13:00:00,,0818.9,5.00,0.00,30.1,28.9,00.0,39.1,31.9,11.4,0000.0,0014.01,0005.06,0004.09
2022-05-28 13:01:00,,0818.9,5.01,0.00,30.1,28.9,00.0,39.1,31.9,11.3,0000.0,0013.57,0005.08,0004.14
2022-05-28 13:02:00,,0818.9,5.00,0.00,30.1,28.9,00.0,39.1,31.9,11.6,0000.0,0012.88,0005.11,0004.20
2022-05-28 13:03:00,,0818.9,4.99,0.00,30.1,29.0,00.0,39.1,31.9,11.6,0000.0,0012.19,0005.17,0004.28
2022-05-28 13:04:00,,0818.9,5.01,0.00,30.1,29.0,00.0,39.1,31.9,11.2,0000.0,0012.06,0005.26,0004.36
2022-05-28 13:05:00,,0818.9,4.99,0.00,30.1,29.0,00.0,39.1,31.9,11.3,0000.0,0012.71,0005.39,0004.48
2022-05-28 13:06:00,,0818.9,5.01,0.00,30.1,29.0,00.0,39.1,31.9,11.2,0000.0,0012.40,0005.46,0004.56
2022-05-28 13:07:00,,0818.9,5.00,0.00,30.1,29.0,00.0,39.1,31.9,11.1,0000.0,0012.89,0005.49,0004.63
2022-05-28 13:08:00,,0818.9,5.01,0.00,30.1,29.0,00.0,39.1,31.9,11.3,0000.0,0012.95,0005.54,0004.69
2022-05-28 13:09:00,,0818.9,5.00,0.00,30.1,29.0,00.0,39.1,31.9,11.5,0000.0,0013.35,0005.56,0004.70
2022-05-28 13:10:00,,0818.9,4.99,0.00,30.1,29.0,00.0,39.1,31.9,11.6,0000.0,0013.35,0005.56,0004.69
2022-05-28 13:11:00,,0818.9,5.00,0.00,30.1,29.0,00.0,39.1,31.9,11.6,0000.0,0012.66,0005.53,0004.64
2022-05-28 13:12:00,,0818.9,5.01,0.00,30.1,29.0,00.0,39.1,31.9,11.7,0000.0,0012.68,0005.44,0004.55
2022-05-28 13:13:00,,0818.9,5.00,0.00,30.1,29.0,00.0,39.1,31.9,11.4,0000.0,0013.05,0005.40,0004.46
2022-05-28 13:14:00,,0819.0,5.00,0.00,30.1,29.0,00.0,39.1,31.9,11.6,0000.0,0013.86,0005.38,0004.39
2022-05-28 13:15:00,,0819.0,4.99,0.00,30.1,29.0,00.0,39.1,31.9,11.3,0000.0,0013.82,0005.32,0004.33
2022-05-28 13:16:00,,0819.0,5.00,0.00,30.1,29.0,00.0,39.1,31.9,11.3,0000.0,0013.08,0005.30,0004.28
2022-05-28 13:17:00,,0819.0,5.00,0.00,30.1,29.0,00.0,39.1,31.9,11.4,0000.0,0013.45,0005.34,0004.23
2022-05-28 13:18:00,,0819.0,4.99,0.00,30.1,29.0,00.0,39.1,32.0,11.1,0000.0,0013.73,0005.36,0004.21
2022-05-28 13:19:00,,0818.9,5.00,0.00,30.2,29.0,00.0,39.1,32.0,10.9,0000.0,0014.63,0005.38,0004.22
2022-05-28 13:20:00,,0818.9,4.99,0.00,30.2,29.0,00.0,39.1,32.0,11.8,0000.0,0014.50,0005.38,0004.26
2022-05-28 13:21:00,,0818.9,5.00,0.00,30.2,29.0,00.0,39.1,32.0,11.2,0000.0,0014.41,0005.45,0004.33
2022-05-28 13:22:00,,0818.9,5.00,0.00,30.2,29.0,00.0,39.1,32.0,10.8,0000.0,0014.84,0005.49,0004.41
2022-05-28 13:23:00,,0818.9,5.00,0.00,30.2,29.0,00.0,39.1,32.0,11.1,0000.0,0015.06,0005.52,0004.49
2022-05-28 13:24:00,,0818.9,4.99,0.00,30.2,29.0,00.0,39.1,32.0,10.8,0000.0,0014.77,0005.56,0004.55
2022-05-28 13:25:00,,0818.9,5.00,0.00,30.2,29.0,00.0,39.1,32.0,10.8,0000.0,0013.99,0005.55,0004.62
2022-05-28 13:26:00,,0818.9,5.00,0.00,30.2,29.0,00.0,39.1,32.0,11.0,0000.0,0013.47,0005.53,0004.64
2022-05-28 13:27:00,,0818.9,4.99,0.00,30.2,29.0,00.0,39.1,32.0,10.9,0000.0,0013.85,0005.54,0004.65
2022-05-28 13:28:00,,0818.9,5.00,0.00,30.2,29.1,00.0,39.1,32.0,11.0,0000.0,0013.72,0005.51,0004.67
2022-05-28 13:29:00,,0818.9,5.00,0.00,30.2,29.1,00.0,39.1,32.0,10.9,0000.0,0013.05,0005.51,0004.69
2022-05-28 13:30:00,,0818.9,5.01,0.00,30.2,29.1,00.0,39.1,32.0,10.7,0000.0,0011.69,0005.46,0004.68
2022-05-28 13:31:00,,0818.9,5.01,0.00,30.2,29.1,00.0,39.1,32.0,10.6,0000.0,0011.09,0005.43,0004.68
2022-05-28 13:32:00,,0818.9,4.99,0.00,30.2,29.1,00.0,39.1,32.0,10.6,0000.0,0011.12,0005.42,0004.69
2022-05-28 13:33:00,,0818.9,5.00,0.00,30.2,29.1,00.0,39.1,32.0,10.7,0000.0,0010.92,0005.41,0004.68
2022-05-28 13:34:00,,0818.9,4.99,0.00,30.2,29.1,00.0,39.1,32.0,10.9,0000.0,0010.50,0005.44,0004.67
2022-05-28 13:35:00,,0818.9,5.00,0.00,30.2,29.1,00.0,39.1,32.0,10.9,0000.0,0011.16,0005.45,0004.66
2022-05-28 13:36:00,,0818.9,5.00,0.00,30.2,29.1,00.0,39.1,32.0,11.2,0000.0,0011.41,0005.47,0004.67
2022-05-28 13:37:00,,0818.9,5.00,0.00,30.2,29.1,00.0,39.1,32.0,11.4,0000.0,0011.47,0005.49,0004.69
2022-05-28 13:38:00,,0818.9,5.00,0.00,30.2,29.1,00.0,39.1,32.0,11.4,0000.0,0010.92,0005.46,0004.69
2022-05-28 13:39:00,,0818.9,5.00,0.00,30.2,29.1,00.0,39.1,32.0,11.5,0000.0,0010.76,0005.41,0004.68
2022-05-28 13:40:00,,0818.9,4.99,0.00,30.2,29.1,00.0,39.1,32.0,11.6,0000.0,0010.69,0005.39,0004.66
2022-05-28 13:41:00,,0818.9,5.01,0.00,30.2,29.1,00.0,39.1,32.0,11.6,0000.0,0010.79,0005.41,0004.66
2022-05-28 13:42:00,,0818.9,5.00,0.00,30.2,29.1,00.0,39.1,32.0,11.7,0000.0,0011.20,0005.47,0004.66
2022-05-28 13:43:00,,0819.0,4.99,0.00,30.2,29.1,00.0,39.1,32.0,11.7,0000.0,0010.97,0005.48,0004.64
2022-05-28 13:44:00,,0818.9,4.99,0.00,30.2,29.1,00.0,39.1,32.0,12.0,0000.0,0010.83,0005.45,0004.62
2022-05-28 13:45:00,,0818.8,5.00,0.00,30.2,29.1,00.0,39.1,32.0,12.3,0000.0,0010.82,0005.44,0004.62
2022-05-28 13:46:00,,0818.8,5.01,0.00,30.2,29.1,00.0,39.2,32.0,12.8,0000.0,0010.03,0005.41,0004.61
2022-05-28 13:47:00,,0818.8,4.99,0.00,30.3,29.1,00.0,39.2,32.0,13.0,0000.0,0010.07,0005.42,0004.60
2022-05-28 13:48:00,,0818.8,4.99,0.00,30.3,29.2,00.0,39.2,32.0,12.9,0000.0,0010.11,0005.43,0004.60
2022-05-28 13:49:00,,0818.8,5.01,0.00,30.3,29.2,00.0,39.2,32.0,12.9,0000.0,0010.35,0005.46,0004.60
2022-05-28 13:50:00,,0818.8,5.00,0.00,30.3,29.2,00.0,39.2,32.1,13.3,0000.0,0010.49,0005.48,0004.60
2022-05-28 13:51:00,,0818.8,5.00,0.00,30.3,29.2,00.0,39.2,32.1,11.4,0000.0,0011.12,0005.47,0004.60
2022-05-28 13:52:00,,0818.8,5.00,0.00,30.3,29.2,00.0,39.2,32.1,11.0,0000.0,0011.16,0005.47,0004.59
2022-05-28 13:53:00,,0818.8,5.00,0.00,30.3,29.2,00.0,39.2,32.1,11.3,0000.0,0010.92,0005.44,0004.59
2022-05-28 13:54:00,,0818.8,4.99,0.00,30.3,29.2,00.0,39.2,32.1,11.4,0000.0,0010.70,0005.45,0004.60
2022-05-28 13:55:00,,0818.8,5.00,0.00,30.3,29.2,00.0,39.2,32.1,11.7,0000.0,0010.58,0005.48,0004.62
2022-05-28 13:56:00,,0818.8,5.00,0.00,30.3,29.2,00.0,39.2,32.1,11.5,0000.0,0010.63,0005.51,0004.65
2022-05-28 13:57:00,,0818.8,4.99,0.00,30.3,29.2,00.0,39.2,32.1,11.5,0000.0,0011.03,0005.55,0004.68
2022-05-28 13:58:00,,0818.8,5.00,0.00,30.3,29.2,00.0,39.2,32.1,12.2,0000.0,0011.34,0005.57,0004.69
2022-05-28 13:59:00,,0818.8,4.99,0.00,30.3,29.3,00.0,39.2,32.1,11.3,0000.0,0011.54,0005.58,0004.72
